When you browse on this site, cookies collect data to enhance your experience and personalize the content and advertising you see.
Visit our Privacy Policy to learn more. By continuing to use the site, you agree to this use of cookies and data.
  • In Romania
  • List of Countries
  • For 7 days
  • Water Temperature
  • Satellite Maps
  • Weather Map
  • Weather Widgets
  • user-avatar
    Login

    Hourly Weather Atabey

    Today, 20 May, Monday

    Time Temperature Precipitation Wind Pressure Humidity
    00:00 +16°C° 0 mm 1 mps 658 mmHg 59%
    01:00 +16°C° 0 mm 1 mps 658 mmHg 58%
    02:00 +15°C° 0 mm 1 mps 658 mmHg 59%
    03:00 +15°C° 0 mm 1 mps 658 mmHg 60%
    04:00 +15°C° 0 mm 1 mps 658 mmHg 60%
    05:00 +15°C° 0 mm 1 mps 658 mmHg 61%
    06:00 +18°C° 0 mm 1 mps 659 mmHg 54%
    07:00 +20°C° 0 mm 1 mps 660 mmHg 47%
    08:00 +21°C° 0 mm 2 mps 660 mmHg 41%
    09:00 +22°C° 0 mm 3 mps 661 mmHg 36%
    10:00 +25°C° 0 mm 3 mps 661 mmHg 32%
    11:00 +26°C° 0 mm 4 mps 661 mmHg 27%
    12:00 +26°C° 0 mm 5 mps 662 mmHg 26%
    13:00 +27°C° 0 mm 5 mps 662 mmHg 25%
    14:00 +27°C° 0 mm 6 mps 662 mmHg 26%
    15:00 +26°C° 0 mm 5 mps 661 mmHg 28%
    16:00 +26°C° 0 mm 5 mps 661 mmHg 30%
    17:00 +25°C° 0 mm 4 mps 661 mmHg 32%
    18:00 +22°C° 0 mm 3 mps 661 mmHg 40%
    19:00 +20°C° 0 mm 3 mps 660 mmHg 49%
    20:00 +18°C° 0 mm 2 mps 660 mmHg 58%
    21:00 +17°C° 0 mm 2 mps 660 mmHg 62%
    22:00 +17°C° 0 mm 2 mps 660 mmHg 67%
    23:00 +16°C° 0 mm 2 mps 660 mmHg 71%

    Tomorrow, 21 May, Tuesday

    Time Temperature Precipitation Wind Pressure Humidity
    00:00 +15°C° 0 mm 2 mps 660 mmHg 73%
    01:00 +15°C° 0 mm 2 mps 660 mmHg 74%
    02:00 +14°C° 0 mm 1 mps 660 mmHg 75%
    03:00 +14°C° 0 mm 1 mps 659 mmHg 76%
    04:00 +14°C° 0 mm 1 mps 659 mmHg 76%
    05:00 +14°C° 0 mm 1 mps 659 mmHg 76%
    06:00 +16°C° 0 mm 1 mps 660 mmHg 65%
    07:00 +19°C° 0 mm 1 mps 661 mmHg 53%
    08:00 +20°C° 0 mm 2 mps 661 mmHg 41%
    09:00 +21°C° 0 mm 4 mps 662 mmHg 37%
    10:00 +23°C° 0 mm 5 mps 662 mmHg 33%
    11:00 +24°C° 0 mm 7 mps 663 mmHg 29%
    12:00 +24°C° 0 mm 8 mps 662 mmHg 31%
    13:00 +24°C° 0 mm 8 mps 662 mmHg 32%
    14:00 +24°C° 0 mm 9 mps 662 mmHg 33%
    15:00 +23°C° 0 mm 8 mps 662 mmHg 35%
    16:00 +23°C° 0 mm 8 mps 662 mmHg 37%
    17:00 +23°C° 0 mm 7 mps 661 mmHg 39%
    18:00 +21°C° 0 mm 6 mps 661 mmHg 44%
    19:00 +19°C° 0 mm 4 mps 661 mmHg 49%
    20:00 +18°C° 0 mm 2 mps 661 mmHg 54%
    21:00 +17°C° 0 mm 2 mps 661 mmHg 57%
    22:00 +16°C° 0 mm 1 mps 661 mmHg 59%
    23:00 +16°C° 0 mm 1 mps 661 mmHg 62%

    Day after tomorrow, 22 May, Wednesday

    Time Temperature Precipitation Wind Pressure Humidity
    00:00 +15°C° 0 mm 1 mps 660 mmHg 63%
    01:00 +15°C° 0 mm 1 mps 660 mmHg 64%
    02:00 +14°C° 0 mm 1 mps 660 mmHg 65%
    03:00 +14°C° 0 mm 1 mps 659 mmHg 66%
    04:00 +13°C° 0 mm 1 mps 659 mmHg 67%
    05:00 +13°C° 0 mm 1 mps 659 mmHg 67%
    06:00 +15°C° 0 mm 1 mps 660 mmHg 59%
    07:00 +18°C° 0 mm 1 mps 661 mmHg 51%
    08:00 +20°C° 0 mm 1 mps 661 mmHg 43%
    09:00 +20°C° 0 mm 2 mps 662 mmHg 40%
    10:00 +22°C° 0 mm 3 mps 662 mmHg 38%
    11:00 +23°C° 0 mm 4 mps 662 mmHg 35%
    12:00 +25°C° 0 mm 5 mps 662 mmHg 33%
    13:00 +26°C° 0 mm 6 mps 662 mmHg 31%
    14:00 +26°C° 0 mm 7 mps 662 mmHg 29%
    15:00 +26°C° 0 mm 7 mps 662 mmHg 29%
    16:00 +24°C° 0 mm 7 mps 661 mmHg 30%
    17:00 +24°C° 0 mm 6 mps 661 mmHg 30%
    18:00 +22°C° 0 mm 5 mps 661 mmHg 34%
    19:00 +20°C° 0 mm 3 mps 661 mmHg 39%
    20:00 +19°C° 0 mm 2 mps 661 mmHg 44%
    21:00 +18°C° 0 mm 2 mps 661 mmHg 46%
    22:00 +18°C° 0 mm 1 mps 661 mmHg 48%
    23:00 +16°C° 0 mm 1 mps 660 mmHg 49%

    23 May, Thursday

    Time Temperature Precipitation Wind Pressure Humidity
    00:00 +16°C° 0 mm 1 mps 660 mmHg 51%
    01:00 +16°C° 0 mm 1 mps 660 mmHg 52%
    02:00 +16°C° 0 mm 1 mps 659 mmHg 54%
    03:00 +15°C° 0 mm 1 mps 659 mmHg 56%
    04:00 +15°C° 0 mm 1 mps 659 mmHg 58%
    05:00 +15°C° 0 mm 1 mps 659 mmHg 60%
    06:00 +18°C° 0 mm 1 mps 660 mmHg 53%
    07:00 +20°C° 0 mm 1 mps 661 mmHg 46%
    08:00 +22°C° 0 mm 1 mps 661 mmHg 39%
    09:00 +23°C° 0 mm 2 mps 662 mmHg 37%
    10:00 +24°C° 0 mm 2 mps 662 mmHg 35%
    11:00 +25°C° 0 mm 3 mps 662 mmHg 32%
    12:00 +26°C° 0 mm 4 mps 662 mmHg 31%
    13:00 +27°C° 0 mm 5 mps 661 mmHg 30%
    14:00 +28°C° 0 mm 5 mps 661 mmHg 29%
    15:00 +28°C° 0 mm 5 mps 661 mmHg 29%
    16:00 +27°C° 0 mm 5 mps 661 mmHg 29%
    17:00 +27°C° 0 mm 4 mps 660 mmHg 29%
    18:00 +25°C° 0 mm 4 mps 660 mmHg 35%
    19:00 +24°C° 0 mm 3 mps 659 mmHg 40%
    20:00 +21°C° 0 mm 3 mps 659 mmHg 46%
    21:00 +20°C° 0 mm 3 mps 659 mmHg 48%
    22:00 +20°C° 0 mm 3 mps 658 mmHg 50%
    23:00 +19°C° 0 mm 3 mps 658 mmHg 52%

    24 May, Friday

    Time Temperature Precipitation Wind Pressure Humidity
    00:00 +18°C° 0 mm 3 mps 657 mmHg 51%
    01:00 +18°C° 0 mm 3 mps 657 mmHg 49%
    02:00 +18°C° 0 mm 3 mps 656 mmHg 48%
    03:00 +18°C° 0 mm 3 mps 656 mmHg 46%
    04:00 +17°C° 0 mm 3 mps 656 mmHg 45%
    05:00 +17°C° 0 mm 3 mps 656 mmHg 43%
    06:00 +19°C° 0 mm 3 mps 656 mmHg 39%
    07:00 +21°C° 0 mm 3 mps 657 mmHg 35%
    08:00 +22°C° 0 mm 4 mps 657 mmHg 31%
    09:00 +25°C° 0 mm 5 mps 657 mmHg 29%
    10:00 +26°C° 0 mm 6 mps 657 mmHg 26%
    11:00 +27°C° 0 mm 7 mps 657 mmHg 24%
    12:00 +27°C° 0 mm 7 mps 657 mmHg 25%
    13:00 +27°C° 0 mm 8 mps 656 mmHg 26%
    14:00 +27°C° 0 mm 8 mps 656 mmHg 27%
    15:00 +26°C° 0.2 mm 7 mps 655 mmHg 29%
    16:00 +24°C° 0.2 mm 6 mps 655 mmHg 32%
    17:00 +23°C° 0.2 mm 5 mps 654 mmHg 35%
    18:00 +21°C° 0.1 mm 4 mps 654 mmHg 41%
    19:00 +19°C° 0.1 mm 3 mps 654 mmHg 47%
    20:00 +17°C° 0.1 mm 3 mps 654 mmHg 53%
    21:00 +17°C° 0 mm 2 mps 654 mmHg 57%
    22:00 +16°C° 0 mm 2 mps 654 mmHg 61%
    23:00 +15°C° 0 mm 2 mps 654 mmHg 66%

    25 May, Saturday

    Time Temperature Precipitation Wind Pressure Humidity
    00:00 +15°C° 0 mm 2 mps 654 mmHg 69%
    01:00 +15°C° 0 mm 2 mps 654 mmHg 72%
    02:00 +14°C° 0 mm 2 mps 654 mmHg 76%
    03:00 +14°C° 0 mm 2 mps 654 mmHg 80%
    04:00 +13°C° 0 mm 1 mps 654 mmHg 83%
    05:00 +13°C° 0 mm 1 mps 654 mmHg 87%
    06:00 +15°C° 0 mm 1 mps 655 mmHg 81%
    07:00 +16°C° 0 mm 1 mps 656 mmHg 74%
    08:00 +18°C° 0 mm 2 mps 656 mmHg 68%
    09:00 +19°C° 0 mm 2 mps 657 mmHg 59%
    10:00 +20°C° 0 mm 2 mps 657 mmHg 49%
    11:00 +22°C° 0 mm 3 mps 657 mmHg 40%
    12:00 +22°C° 0 mm 3 mps 657 mmHg 37%
    13:00 +24°C° 0 mm 3 mps 657 mmHg 34%
    14:00 +25°C° 0 mm 4 mps 657 mmHg 31%
    15:00 +25°C° 0 mm 3 mps 657 mmHg 33%
    16:00 +24°C° 0 mm 3 mps 657 mmHg 34%
    17:00 +24°C° 0 mm 3 mps 657 mmHg 36%
    18:00 +21°C° 0 mm 2 mps 657 mmHg 43%
    19:00 +20°C° 0 mm 2 mps 657 mmHg 51%
    20:00 +19°C° 0 mm 1 mps 657 mmHg 59%
    21:00 +18°C° 0 mm 1 mps 657 mmHg 63%
    22:00 +18°C° 0 mm 1 mps 657 mmHg 66%
    23:00 +16°C° 0 mm 1 mps 657 mmHg 69%
    Show more